[[{"header":{"parameterUnit":"m.s-1","parameterCategory":1,"la1":30.2991,"la2":30.254,"lo1":-89.0895,"lo2":-89.0444,"dy":0.0017,"dx":0.0017,"nx":28,"ny":28,"refTime":"2024-07-21T21:00:00:Z","depth":0,"parameterNumber":2,"parameterNumberName":"U-component_of_WINDS"},"data":[0,0,0,0,0,0,0,0,0,0,0,0,0,0,0,0,0,0,0,0,0,0,0,0,0,0,0,0,0,0,0,0,0,0,0,0,0,0,0,0,0,0,0,0,0,0,0,0,0,0,0,0,0,0,0,0,0,0,0.6643,0.6643,0,0.6612,0.6612,0.6611,0.6574,0.6574,0.6573,0.6573,0.6541,0.6541,0.654,0,0,0,0,0,0,0,0,0,0,0,0,0,0.6671,0.667,0.6643,0.6643,0.6642,0.6612,0.6612,0.6611,0.6574,0.6574,0.6573,0.6572,0.6541,0.6541,0.654,0,0,0,0,0,0,0,0,0,0,0,0,0,0.6651,0.667,0.6643,0.662,0.6618,0.6612,0.6611,0.6611,0.6575,0.6574,0.6573,0.6572,0.6541,0.6541,0.654,0.6554,0,0,0.6539,0.6539,0,0,0,0,0,0,0,0,0.6652,0.665,0.6624,0.6622,0.6619,0.6596,0.661,0.6592,0.6575,0.6591,0.6573,0.6572,0.656,0.6558,0.6554,0.6553,0.6552,0.6539,0.6539,0.6538,0.6538,0,0,0,0,0,0,0,0.6654,0.6651,0.6631,0.6624,0.6621,0.6612,0.6608,0.6606,0.6581,0.659,0.6587,0.6584,0.6559,0.6555,0.6553,0.6551,0.6539,0.6538,0.6538,0.6538,0.6558,0.6559,0,0,0,0,0,0,0.6658,0.6653,0.6632,0.663,0.6634,0.6612,0.6608,0.6604,0.6581,0.6576,0.6584,0.6582,0.6556,0.6554,0.6552,0.6565,0.6538,0.6538,0.6538,0.6557,0.6558,0.6559,0,0,0,0,0,0,0.6659,0.6657,0.6633,0.664,0.6637,0.6612,0.6609,0.6604,0.66,0.6577,0.6572,0.6585,0.6555,0.6552,0.6553,0.6563,0.6538,0.6537,0.6556,0.6557,0.6559,0.6592,0,0,0,0,0,0,0.666,0.6657,0.6663,0.6641,0.6636,0.6635,0.661,0.6604,0.6599,0.6596,0.6576,0.6572,0.6554,0.6554,0.6553,0.6562,0.6537,0.6555,0.6557,0.6558,0.659,0.6595,0.6598,0,0,0,0,0,0.6661,0.6674,0.6663,0.6661,0.6642,0.6636,0.6634,0.6613,0.66,0.6605,0.659,0.6572,0.6563,0.6555,0.6553,0.6562,0.6554,0.6556,0.6558,0.6588,0.6594,0.6598,0,0,0,0,0,0,0.6697,0.667,0.6658,0.6664,0.6653,0.663,0.6635,0.662,0.6611,0.6609,0.6584,0.6579,0.6583,0.6573,0.6565,0.6574,0.6556,0.6558,0.658,0.6585,0.6589,0.659,0.6536,0,0,0,0,0,0.6706,0.6703,0.668,0.6688,0.6682,0.666,0.6657,0.6642,0.6629,0.6624,0.6609,0.6597,0.6591,0.6587,0.6581,0.6589,0.6583,0.6595,0.6599,0.6602,0.6603,0.6605,0.6609,0.6565,0.6565,0.6565,0,0,0.6724,0.6709,0.6709,0.6694,0.6684,0.6681,0.6656,0.6655,0.6652,0.6623,0.6623,0.6612,0.6597,0.6601,0.6602,0.6593,0.6614,0.6604,0.6607,0.6606,0.6607,0.6611,0.6615,0.6566,0.6566,0.6566,0,0,0.6755,0.6744,0.6748,0.6737,0.6721,0.6706,0.6708,0.6687,0.6678,0.6677,0.6655,0.6652,0.6643,0.6633,0.6626,0.6653,0.6636,0.6652,0.6672,0.6674,0.6677,0.668,0.6688,0.6691,0.6653,0.6653,0.6653,0,0.6779,0.6773,0.6752,0.6751,0.6745,0.6719,0.6722,0.6714,0.6697,0.6693,0.6683,0.6669,0.6658,0.6658,0.6665,0.6661,0.6661,0.6653,0.6679,0.6681,0.6684,0.6691,0.6694,0.6655,0.6655,0.6655,0.6654,0,0.6803,0.68,0.6805,0.6788,0.6783,0.6785,0.6763,0.676,0.6746,0.6732,0.6731,0.6716,0.6705,0.6704,0.6691,0.6703,0.6697,0.6683,0.6665,0.669,0.6696,0.6699,0.6658,0.6657,0.6656,0.6656,0,0,0.6854,0.6826,0.6828,0.6819,0.68,0.6797,0.6797,0.6786,0.6783,0.6773,0.6771,0.6764,0.6751,0.6743,0.6728,0.6731,0.675,0.6716,0.6715,0.6721,0.676,0.6769,0.6772,0.6739,0.674,0.674,0.6761,0,0.6879,0.6878,0.6858,0.6862,0.6858,0.6833,0.6833,0.6821,0.6808,0.6802,0.6788,0.6782,0.6767,0.6762,0.6763,0.6747,0.6757,0.6746,0.6736,0.6736,0.6739,0.6776,0.6786,0.6805,0.6763,0.6763,0.6764,0,0.6908,0.6899,0.6902,0.6881,0.6879,0.6879,0.6867,0.6862,0.6848,0.6838,0.683,0.6813,0.6811,0.6795,0.6791,0.6784,0.6779,0.6771,0.6771,0.6768,0.675,0.6772,0.6812,0.6814,0.6767,0.6767,0.6767,0,0.6943,0.6931,0.6931,0.6925,0.6901,0.6901,0.6892,0.6876,0.6871,0.6861,0.6856,0.6846,0.684,0.6833,0.6813,0.6803,0.6811,0.6794,0.6802,0.6802,0.6803,0.6803,0.684,0.6803,0.6803,0.6803,0.6803,0,0.6972,0.6974,0.6945,0.6945,0.6947,0.6925,0.6927,0.6915,0.6901,0.6898,0.6877,0.6874,0.6849,0.6843,0.6828,0.6826,0.6824,0.6816,0.6811,0.6816,0.6817,0.6812,0.6809,0.6804,0.6804,0.6804,0.6803,0,0.701,0.6991,0.6989,0.6967,0.6961,0.6963,0.6944,0.6943,0.6929,0.6924,0.6922,0.69,0.6892,0.6872,0.6859,0.6849,0.685,0.6843,0.6855,0.6852,0.686,0.6859,0.6894,0.6896,0.686,0.686,0.686,0,0.7029,0.703,0.7008,0.7004,0.6995,0.6989,0.6983,0.6961,0.6956,0.6939,0.6939,0.693,0.692,0.6909,0.6891,0.6881,0.6872,0.6885,0.687,0.6875,0.687,0.6869,0.6869,0.6888,0.6888,0.6889,0.6889,0,0.7063,0.7054,0.7046,0.7035,0.7028,0.7018,0.7007,0.7005,0.6981,0.6976,0.6967,0.696,0.6946,0.6936,0.6923,0.6913,0.6896,0.6894,0.6895,0.6899,0.6905,0.69,0.6861,0.6893,0.6893,0.6892,0.6892,0.6892,0.709,0.709,0.7074,0.7065,0.7055,0.7045,0.7042,0.7028,0.702,0.7007,0.6995,0.6987,0.6972,0.6952,0.6943,0.6936,0.6928,0.693,0.693,0.693,0.6932,0.6908,0.6934,0.6934,0.6934,0.6934,0.6934,0,0.7122,0.7111,0.7103,0.7088,0.7082,0.7068,0.7055,0.705,0.7043,0.7031,0.7022,0.7011,0.7002,0.6983,0.6972,0.697,0.6962,0.6967,0.6966,0.6964,0.6941,0.694,0.6974,0.6974,0.6974,0.6974,0.6974,0.6974,0.7138,0.7135,0.7124,0.7116,0.7104,0.7096,0.709,0.708,0.707,0.7059,0.7051,0.7039,0.7024,0.7011,0.7001,0.6996,0.6991,0.6999,0.6991,0.697,0.6966,0.6962,0.6961,0.6999,0.6999,0.7014,0.7015,0.7015]},{"header":{"parameterUnit":"m.s-1","parameterCategory":1,"la1":30.2991,"la2":30.254,"lo1":-89.0895,"lo2":-89.0444,"dy":0.0017,"dx":0.0017,"nx":28,"ny":28,"refTime":"2024-07-21T21:00:00:Z","depth":0,"parameterNumber":3,"parameterNumberName":"V-component_of_WINDS"},"data":[0,0,0,0,0,0,0,0,0,0,0,0,0,0,0,0,0,0,0,0,0,0,0,0,0,0,0,0,0,0,0,0,0,0,0,0,0,0,0,0,0,0,0,0,0,0,0,0,0,0,0,0,0,0,0,0,0,0,1.8998,1.8999,0,1.9101,1.9102,1.9103,1.9095,1.9093,1.9092,1.909,1.9194,1.9198,1.9202,0,0,0,0,0,0,0,0,0,0,0,0,0,1.8792,1.8796,1.8998,1.8999,1.9001,1.91,1.9102,1.9103,1.9095,1.9093,1.9091,1.9089,1.9192,1.9197,1.9202,0,0,0,0,0,0,0,0,0,0,0,0,0,1.8887,1.8797,1.8998,1.9009,1.9011,1.91,1.9102,1.9104,1.9095,1.9093,1.9091,1.9089,1.9191,1.9197,1.9203,1.9288,0,0,1.9222,1.9225,0,0,0,0,0,0,0,0,1.8881,1.8894,1.9006,1.9008,1.901,1.9082,1.9067,1.9165,1.9096,1.9063,1.909,1.9087,1.9158,1.9167,1.9191,1.9293,1.9297,1.9223,1.9226,1.9229,1.9231,0,0,0,0,0,0,0,1.8875,1.889,1.9039,1.9007,1.901,1.9007,1.9018,1.9086,1.9122,1.9066,1.9065,1.9078,1.9159,1.9185,1.9194,1.9299,1.9222,1.9228,1.9232,1.9234,1.9472,1.9474,0,0,0,0,0,0,1.8866,1.8884,1.9035,1.9042,1.8939,1.9013,1.9025,1.9062,1.9122,1.9129,1.908,1.9077,1.9176,1.9186,1.9197,1.9299,1.9229,1.9235,1.9239,1.9469,1.9472,1.9475,0,0,0,0,0,0,1.8862,1.888,1.9031,1.8963,1.8982,1.9019,1.906,1.9065,1.9091,1.9132,1.9138,1.91,1.9174,1.9189,1.9265,1.9303,1.9238,1.9244,1.9466,1.947,1.9473,1.9504,0,0,0,0,0,0,1.8856,1.8878,1.8912,1.8964,1.8986,1.9098,1.9062,1.9069,1.9102,1.91,1.9153,1.9159,1.9174,1.9255,1.9271,1.931,1.9248,1.9463,1.9468,1.9472,1.95,1.9508,1.9516,0,0,0,0,0,1.8849,1.8917,1.8914,1.8932,1.9029,1.91,1.9113,1.9128,1.9105,1.9139,1.9164,1.9158,1.9296,1.9263,1.9281,1.9322,1.9461,1.9466,1.9472,1.9496,1.9507,1.9516,0,0,0,0,0,0,1.8869,1.8924,1.8921,1.9008,1.905,1.9099,1.9142,1.9139,1.9188,1.9184,1.92,1.9212,1.9288,1.9313,1.9276,1.9406,1.9375,1.9384,1.9387,1.9398,1.9405,1.9398,1.9254,0,0,0,0,0,1.8883,1.8938,1.8983,1.9055,1.9076,1.9105,1.9137,1.9145,1.9188,1.9206,1.9237,1.9279,1.9332,1.9366,1.9417,1.9503,1.9513,1.954,1.9548,1.9554,1.9562,1.9607,1.9618,1.9494,1.9494,1.9493,0,0,1.8914,1.8951,1.8984,1.906,1.9093,1.9147,1.912,1.918,1.922,1.9215,1.9289,1.9313,1.936,1.9441,1.9478,1.9464,1.9599,1.9561,1.9566,1.9571,1.9614,1.9626,1.9636,1.9497,1.9497,1.9496,0,0,1.8998,1.9032,1.9095,1.9128,1.9178,1.9196,1.9211,1.9261,1.9276,1.9351,1.9347,1.9395,1.9486,1.9519,1.9547,1.964,1.9635,1.9656,1.9698,1.9741,1.9751,1.976,1.9791,1.9803,1.9664,1.9664,1.9664,0,1.9029,1.9113,1.9127,1.9187,1.9219,1.9217,1.9279,1.9311,1.9375,1.9397,1.9379,1.9491,1.9523,1.9611,1.9633,1.9657,1.9673,1.9651,1.9749,1.9758,1.9766,1.9796,1.9808,1.9666,1.9666,1.9666,1.9666,0,1.9148,1.9205,1.925,1.9311,1.9349,1.941,1.9432,1.9468,1.9472,1.9492,1.9566,1.9604,1.9661,1.9682,1.9687,1.977,1.9759,1.9745,1.9714,1.978,1.9808,1.982,1.9669,1.9669,1.9668,1.9667,0,0,1.9249,1.9316,1.9332,1.9358,1.9412,1.9456,1.9516,1.9571,1.9601,1.9644,1.9694,1.9769,1.9756,1.9788,1.9797,1.9835,1.9904,1.9816,1.9818,1.983,1.9994,2.0004,2.0017,1.99,1.9903,1.9904,1.999,0,1.9337,1.9443,1.9457,1.9551,1.9602,1.9599,1.9651,1.9688,1.9708,1.9753,1.9774,1.9827,1.9807,1.9826,1.9864,1.9887,1.9937,1.9881,1.9945,1.9947,1.9933,2.0032,2.0043,2.0122,2.0001,2.0003,2.0005,0,1.9455,1.95,1.9599,1.9643,1.9665,1.9712,1.9762,1.9807,1.9848,1.9859,1.9894,1.9897,1.9957,1.9923,2.0004,1.9966,1.9993,2.0008,2.0011,2.0018,1.998,2.004,2.0148,2.0159,2.0023,2.0021,2.002,0,1.9516,1.9603,1.9672,1.9695,1.9749,1.9781,1.9805,1.9844,1.9876,1.992,1.994,1.9991,2.0018,2.0056,2.0072,2.0046,2.0151,2.012,2.0161,2.0161,2.0183,2.0182,2.0296,2.0202,2.0202,2.0201,2.0201,0,1.9613,1.9673,1.97,1.9743,1.9809,1.9824,1.9889,1.9911,1.9945,1.9991,1.9991,2.0034,2.0052,2.0097,2.011,2.0174,2.0187,2.0196,2.0199,2.0196,2.0195,2.0213,2.0208,2.0205,2.0204,2.0203,2.0203,0,1.9693,1.9714,1.979,1.9833,1.9846,1.9892,1.9929,1.997,1.9988,2.0045,2.006,2.0088,2.0141,2.016,2.0224,2.0232,2.0306,2.0305,2.0292,2.0293,2.0333,2.0328,2.0462,2.048,2.0375,2.0376,2.0377,0,1.9753,1.9799,1.9847,1.9878,1.9903,1.9952,1.9984,1.9999,2.0032,2.0081,2.0115,2.0168,2.0211,2.0295,2.032,2.0369,2.0368,2.0411,2.0375,2.037,2.0367,2.0363,2.0367,2.0418,2.0419,2.042,2.0421,0,1.9857,1.9865,1.9911,1.996,1.9998,2.0038,2.0076,2.0101,2.0121,2.0158,2.0212,2.0245,2.031,2.0361,2.041,2.0433,2.043,2.0432,2.0443,2.0441,2.0431,2.0436,2.031,2.0429,2.0428,2.0427,2.0427,2.0426,1.9929,1.9968,2.0008,2.0058,2.0088,2.0124,2.0163,2.0185,2.0231,2.0285,2.029,2.0348,2.0385,2.0451,2.0476,2.052,2.0508,2.0525,2.053,2.0534,2.0536,2.0425,2.0529,2.0529,2.0528,2.0528,2.0528,0,2.0031,2.0056,2.0102,2.0155,2.0195,2.0188,2.0229,2.0262,2.0313,2.0348,2.039,2.045,2.0499,2.0528,2.0576,2.0606,2.0605,2.0618,2.0616,2.0621,2.0545,2.0529,2.0618,2.0618,2.0618,2.0617,2.0617,2.0617,2.0089,2.0155,2.0167,2.0247,2.0271,2.0327,2.0351,2.0382,2.0411,2.0478,2.0519,2.0537,2.0569,2.0619,2.0663,2.067,2.0688,2.0701,2.0707,2.0636,2.0626,2.0618,2.0603,2.0705,2.0706,2.0779,2.078,2.078]}]]